Terminal Aerodrome Forecast
Issued by NWS Boston, MA

Home | Current Version | Previous Version | Text Only | Print | Product List | Glossary On
Versions: 1 2 3 4 5 6 7 8 9 10 11 12 13 14 15 16 17 18 19 20 21 22 23 24 25 26 27 28 29 30 31 32 33 34 35 36 37 38 39 40
000
FTUS41 KBOX 102320
TAFBOS
TAF
KBOS 102320Z 1100/1206 31008KT P6SM SKC
     FM111500 25004KT P6SM FEW150
     FM120100 19005KT P6SM OVC040
     FM120500 15005KT 4SM -SN OVC020=

USA.gov is the U.S. government's official web portal to all federal, state and local government web resources and services.